Regional Weather Roundup
Issued by NWS

Home | Current Version | Previous Version | Graphics & Text | Print | Product List | Glossary Off
Versions: 1 2 3 4 5 6 7 8 9 10 11 12 13 14 15 16 17 18 19 20 21 22 23 24 25 26 27 28 29 30 31 32 33 34 35 36 37 38 39 40 41 42 43 44 45 46 47 48 49 50

000
ASUS43 KMKX 220620
RWRWI

WISCONSIN REGIONAL WEATHER ROUNDUP
NATIONAL WEATHER SERVICE MILWAUKEE/SULLIVAN WI
100 AM CDT TUE MAY 22 2018

NOTE: "FAIR" INDICATES FEW OR NO CLOUDS BELOW 12,000 FEET WITH NO
SIGNIFICANT WEATHER AND/OR OBSTRUCTIONS TO VISIBILITY.

WIZ001-002-006>008-014>016-023>028-220700-
NORTHWEST WISCONSIN

CITY           SKY/WX    TMP DP  RH WIND       PRES   REMARKS
SUPERIOR ARPT  CLOUDY    49  45  85 S3        30.01S
6HR MIN TEMP:  46; 6HR MAX TEMP:  57; 6HR PCP:  0.01;

ASHLAND        MOCLDY    43  39  86 SW3       30.01S
6HR MIN TEMP:  42; 6HR MAX TEMP:  56;

HAYWARD        CLOUDY    57  52  83 S7        30.03R
6HR MIN TEMP:  54; 6HR MAX TEMP:  65; 6HR PCP: TRACE;

SIREN          CLOUDY    58  52  78 S7        30.02R
6HR MIN TEMP:  58; 6HR MAX TEMP:  68;

CUMBERLAND     CLOUDY    54  50  87 SE6       30.03R
RICE LAKE      CLOUDY    56  53  88 SE8       30.04S
6HR MIN TEMP:  56; 6HR MAX TEMP:  63;

CHETEK         CLOUDY    56  53  91 SE5       30.03S
6HR MIN TEMP:  56; 6HR MAX TEMP:  61;

LADYSMITH      CLOUDY    55  52  89 CALM      30.04S
6HR MIN TEMP:  55; 6HR MAX TEMP:  59;

EAU CLAIRE     CLOUDY    55  54  96 E3        30.01S
6HR MIN TEMP:  55; 6HR MAX TEMP:  59; 6HR PCP: TRACE;

MENOMONIE      CLOUDY    57  55  91 CALM      30.02S
6HR MIN TEMP:  56; 6HR MAX TEMP:  61;

NEW RICHMOND   CLOUDY    57  52  83 CALM      30.02S
6HR MIN TEMP:  57; 6HR MAX TEMP:  61;

OSCEOLA        CLOUDY    59  53  81 SE5       30.04S
6HR MIN TEMP:  59; 6HR MAX TEMP:  64;

$$

WIZ003>005-009-010-017-018-220700-
NORTH CENTRAL WISCONSIN

CITY           SKY/WX    TMP DP  RH WIND       PRES   REMARKS
MANITOWISH WTR CLOUDY    53  50  91 S5        30.03S
6HR MIN TEMP:  53; 6HR MAX TEMP:  60;

ARBOR VITAE    CLOUDY    55  49  83 S6        30.03S
6HR MIN TEMP:  55; 6HR MAX TEMP:  59;

WOODRUFF       CLOUDY    55  49  83 S6        30.03S
6HR MIN TEMP:  55; 6HR MAX TEMP:  59;

RHINELANDER    CLOUDY    53  51  93 CALM      30.04F
6HR MIN TEMP:  52; 6HR MAX TEMP:  55; 6HR PCP:  0.04;

EAGLE RIVER    CLOUDY    51  46  82 CALM      30.03S
6HR MIN TEMP:  51; 6HR MAX TEMP:  58;

LAND O LAKES   CLOUDY    54  45  73 CALM      30.05S
6HR MIN TEMP:  54; 6HR MAX TEMP:  62;

PHILLIPS       CLOUDY    53  51  95 SE7       30.02F
6HR MIN TEMP:  52; 6HR MAX TEMP:  56;

TOMAHAWK       CLOUDY    50  48  93 CALM      30.04F
6HR MIN TEMP:  50; 6HR MAX TEMP:  54;

MEDFORD        CLOUDY    51  50  97 SE5       30.03S FOG
6HR MIN TEMP:  51; 6HR MAX TEMP:  53;

MERRILL        CLOUDY    51  51 100 CALM      30.05S
6HR MIN TEMP:  51; 6HR MAX TEMP:  55; 6HR PCP:  0.02;

$$

WIZ029-030-035-036-043>047-220700-
CENTRAL WISCONSIN

CITY           SKY/WX    TMP DP  RH WIND       PRES   REMARKS
WAUSAU         CLOUDY    50  49  96 E3        30.02F
6HR MIN TEMP:  50; 6HR MAX TEMP:  54; 6HR PCP: TRACE;

MOSINEE        FOG       48  48 100 E3        30.04S VSB 1/4
MARSHFIELD     FOG       51  51 100 E6        30.02S VSB 1/2
6HR MIN TEMP:  50; 6HR MAX TEMP:  54;

STEVENS POINT  FOG       49  49 100 SE3       30.03F VSB 1
6HR MIN TEMP:  49; 6HR MAX TEMP:  52;

WAUPACA        CLOUDY    53  51  95 NE3       30.03F FOG
6HR MIN TEMP:  53; 6HR MAX TEMP:  55;

WAUTOMA        CLOUDY    51  50  96 E5        30.03F
6HR MIN TEMP:  51; 6HR MAX TEMP:  54;

WISC RAPIDS    CLOUDY    51  50  96 E8        30.03F FOG
6HR MIN TEMP:  51; 6HR MAX TEMP:  56; 6HR PCP:  0.01;

CAMP DOUGLAS   CLOUDY    53  53 100 E6        30.02R
6HR MIN TEMP:  53; 6HR MAX TEMP:  57;

$$

WIZ011>013-019>022-031-037>040-048>050-220700-
NORTHEAST WISCONSIN

CITY           SKY/WX    TMP DP  RH WIND       PRES   REMARKS
ANTIGO         CLOUDY    48  48 100 E3        30.05S FOG
6HR MIN TEMP:  48; 6HR MAX TEMP:  52;

SHAWANO        CLOUDY    52  49  89 E3        30.04F
6HR MIN TEMP:  52; 6HR MAX TEMP:  55; 6HR PCP:  0.01;

OCONTO         CLOUDY    50  49  94 CALM      30.04S
6HR MIN TEMP:  50; 6HR MAX TEMP:  51; 6HR PCP:  0.01;

STURGEON BAY   CLOUDY    49  46  90 CALM      30.04F
6HR MIN TEMP:  48; 6HR MAX TEMP:  50; 6HR PCP: TRACE;

GREEN BAY      CLOUDY    51  48  89 CALM      30.03F
6HR MIN TEMP:  51; 6HR MAX TEMP:  53; 6HR PCP: TRACE;

MANITOWOC      CLOUDY    48  48 100 CALM      30.03F FOG
6HR MIN TEMP:  48; 6HR MAX TEMP:  50; 6HR PCP: TRACE;

APPLETON       CLOUDY    50  48  93 E3        30.01F
CLINTONVILLE   CLOUDY    51  48  91 CALM      30.04F
6HR MIN TEMP:  51; 6HR MAX TEMP:  54;

OSHKOSH        CLOUDY    51  50  96 SE3       30.02F
6HR MIN TEMP:  51; 6HR MAX TEMP:  53;

$$

WIZ032>034-041-042-053>061-220700-
SOUTHWEST WISCONSIN

CITY           SKY/WX    TMP DP  RH WIND       PRES   REMARKS
LA CROSSE      CLOUDY    58  56  93 E3        29.99S
6HR MIN TEMP:  59; 6HR MAX TEMP:  60; 6HR PCP:  0.06;

SPARTA         DRIZZLE   52  52 100 E3        30.02S
6HR MIN TEMP:  52; 6HR MAX TEMP:  57; 6HR PCP:  0.01;

VIROQUA        CLOUDY    55  55 100 E5        30.00F
6HR MIN TEMP:  55; 6HR MAX TEMP:  58; 6HR PCP:  0.05;

BOSCOBEL       CLOUDY    58  57  97 VRB3      30.00S FOG
6HR MIN TEMP:  58; 6HR MAX TEMP:  60;

PRAIRIE DU CHI CLOUDY    59  57  94 CALM      30.00R
6HR MIN TEMP:  59; 6HR MAX TEMP:  59;

PLATTEVILLE    CLOUDY    59  59 100 CALM      30.00S VSB 1/2
6HR MIN TEMP:  59; 6HR MAX TEMP:  60;

$$

WIZ056-057-062-063-064-067-068-220700-
SOUTH CENTRAL WISCONSIN

CITY           SKY/WX    TMP DP  RH WIND       PRES   REMARKS
REEDSBURG      CLOUDY    52  52 100 NE5       30.01S FOG
6HR MIN TEMP:  52; 6HR MAX TEMP:  56;

BARABOO/DELLS  FOG       52  51  95 NE5       30.01F VSB 3/4
6HR MIN TEMP:  52; 6HR MAX TEMP:  56; 6HR PCP:  0.01;

LONE ROCK      CLOUDY    56  56 100 CALM      30.00S FOG
6HR MIN TEMP:  56; 6HR MAX TEMP:  60;

MINERAL POINT  FOG       59  59 100 CALM      30.00S VSB 3/4
MADISON        CLOUDY    52  51  97 E3        30.00S FOG
6HR MIN TEMP:  52; 6HR MAX TEMP:  56; 6HR PCP: TRACE;

MIDDLETON      CLOUDY    54  54 100 E3        30.01S
6HR MIN TEMP:  54; 6HR MAX TEMP:  58; 6HR PCP:  0.01;

WATERTOWN      CLOUDY    50  50 100 E6        29.99F FOG
6HR MIN TEMP:  50; 6HR MAX TEMP:  52; 6HR PCP:  0.01;

MONROE         FOG       55  55 100 E3        29.99S VSB 1/4
JANESVILLE     CLOUDY    54  54 100 CALM      30.00S FOG
$$

WIZ051-052-058>065-066-070>072-220700-
SOUTHEAST WISCONSIN

CITY           SKY/WX    TMP DP  RH WIND       PRES   REMARKS
MILWAUKEE      DRZL/FOG  49  48  97 N5        30.00F VSB 1/4
6HR MIN TEMP:  47; 6HR MAX TEMP:  49; 6HR PCP: TRACE;

WAUKESHA       FOG       46  46 100 NE5       30.00F VSB 3/4
MILWAUKEE/TIMM FOG       46  45  93 N5        30.02S VSB 1
RACINE         FOG       47  47 100 N5        30.01F VSB 1/2
6HR MIN TEMP:  46; 6HR MAX TEMP:  52; 6HR PCP: TRACE;

BURLINGTON     FOG       49  48  97 N5        29.99F VSB 1
6HR MIN TEMP:  49; 6HR MAX TEMP:  55;

KENOSHA        FOG       49  48  97 CALM      29.99S VSB 1/2
6HR MIN TEMP:  48; 6HR MAX TEMP:  52;

FOND DU LAC    CLOUDY    50  48  93 NE5       30.02F
6HR MIN TEMP:  50; 6HR MAX TEMP:  52; 6HR PCP: TRACE;

SHEBOYGAN      FOG       48  47  96 N3        30.02F VSB 3/4
6HR MIN TEMP:  47; 6HR MAX TEMP:  49;

WEST BEND      FOG       46  46 100 CALM      30.01F VSB 1/4
JUNEAU         FOG       49  49  99 CALM      30.02S VSB 1
6HR MIN TEMP:  49; 6HR MAX TEMP:  51;

$$

LSZ147-162-220700-
LAKE SUPERIOR

STATION/POSITION TIME  TEMP    WIND        PRES    WAVE
                       AIR SEA DIR/SP/G            HT/PER
                 (UTC) (F)     (DEG/KT/KT) (MB)    (FT/S)
W MID LAKE BUOY  0550   38 36  320/  4/  4 1016.2F   0
DEVILS ISLAND    0600   51      60/  4/  5 1016.5S
SAXON HARBOR     0540   52     200/  6/  8 1015.2F
$$

LMZ867-665-643>646-220700-
LAKE MICHIGAN



USA.gov is the U.S. government's official web portal to all federal, state and local government web resources and services.